Date String (YYYY-MM-DD hh:mm:ss) UTC,Instrument flags,absolute air pressure of the measurement (hPa),sample flow rate (lpm),inlet stack bypass flow (lpm),air temperature of the measurement (°C),ambient temperature measured by the external sensor (°C),aerosol sample conditioner tube jacket temperature (°C),OPC LED temperature (°C),internal box temperature (°C),relative humidity of the measurement (%),span deviation,mass concentration of particles derived from Lorenz-Mie calculation of OPC scattering (μg/m³),mass concentration of particles derived from Lorenz-Mie calculation of OPC scattering (μg/m³),mass concentration of particles derived from Lorenz-Mie calculation of OPC scattering (μg/m³)
DateTimeUTC,F1_M11,P_M11,Q1_M11,Q2_M11,T1_M11,T2_M11,T3_M11,T4_M11,T5_M11,U1_M11,ZSPAN_M11,X0_M11,X2_M11,X1_M11
2024-03-12 00:00:00,SystemResetWarning,0823.8,5.00,000.00,023.6,022.9,000.0,032.0,025.4,08.2,0000.0,0015.90,0005.23,0003.16
2024-03-12 00:01:00,SystemResetWarning,0823.8,4.99,000.00,023.6,022.9,000.0,032.0,025.4,08.1,0000.0,0016.37,0005.27,0003.14
2024-03-12 00:02:00,SystemResetWarning,0823.8,5.01,000.00,023.6,022.9,000.0,032.0,025.4,08.1,0000.0,0017.04,0005.32,0003.10
2024-03-12 00:03:00,SystemResetWarning,0823.8,5.01,000.00,023.6,022.9,000.0,032.0,025.5,08.2,0000.0,0017.46,0005.36,0003.08
2024-03-12 00:04:00,SystemResetWarning,0823.8,5.01,000.00,023.7,023.0,000.0,032.1,025.5,08.2,0000.0,0018.17,0005.32,0003.06
2024-03-12 00:05:00,SystemResetWarning,0823.8,5.00,000.00,023.7,023.0,000.0,032.1,025.5,08.2,0000.0,0017.68,0005.35,0003.08
2024-03-12 00:06:00,SystemResetWarning,0823.9,5.00,000.00,023.7,023.0,000.0,032.1,025.5,08.2,0000.0,0017.52,0005.39,0003.06
2024-03-12 00:07:00,SystemResetWarning,0823.9,5.00,000.00,023.7,023.0,000.0,032.1,025.5,08.3,0000.0,0017.19,0005.38,0003.04
2024-03-12 00:08:00,SystemResetWarning,0823.9,4.99,000.00,023.7,023.0,000.0,032.1,025.5,08.1,0000.0,0017.02,0005.33,0003.04
2024-03-12 00:09:00,SystemResetWarning,0823.9,5.00,000.00,023.7,023.0,000.0,032.1,025.5,08.0,0000.0,0018.11,0005.33,0003.06
2024-03-12 00:10:00,SystemResetWarning,0823.9,5.00,000.00,023.7,023.0,000.0,032.1,025.5,07.8,0000.0,0018.05,0005.29,0003.07
2024-03-12 00:11:00,SystemResetWarning,0823.9,4.99,000.00,023.7,023.0,000.0,032.1,025.5,07.8,0000.0,0019.04,0005.35,0003.06
2024-03-12 00:12:00,SystemResetWarning,0823.9,4.99,000.00,023.7,023.0,000.0,032.1,025.5,07.7,0000.0,0019.16,0005.36,0003.05
2024-03-12 00:13:00,SystemResetWarning,0823.9,5.00,000.00,023.7,023.0,000.0,032.1,025.5,07.6,0000.0,0018.73,0005.27,0003.05
2024-03-12 00:14:00,SystemResetWarning,0823.9,5.00,000.00,023.7,022.9,000.0,032.1,025.5,07.6,0000.0,0018.33,0005.17,0003.04
2024-03-12 00:15:00,SystemResetWarning,0823.9,5.01,000.00,023.7,022.9,000.0,032.1,025.5,07.7,0000.0,0018.34,0005.20,0003.05
2024-03-12 00:16:00,SystemResetWarning,0823.9,5.01,000.00,023.7,022.9,000.0,032.1,025.5,07.6,0000.0,0018.33,0005.17,0002.99
2024-03-12 00:17:00,SystemResetWarning,0823.9,5.01,000.00,023.7,022.9,000.0,032.1,025.5,07.7,0000.0,0020.04,0005.13,0002.97
2024-03-12 00:18:00,SystemResetWarning,0823.9,5.00,000.00,023.7,022.9,000.0,032.1,025.5,07.6,0000.0,0021.21,0005.10,0002.94
2024-03-12 00:19:00,SystemResetWarning,0823.9,5.00,000.00,023.7,022.9,000.0,032.1,025.5,07.6,0000.0,0021.49,0005.08,0002.92
2024-03-12 00:20:00,SystemResetWarning,0823.9,5.00,000.00,023.7,022.9,000.0,032.1,025.5,07.6,0000.0,0021.58,0005.02,0002.88
2024-03-12 00:21:00,SystemResetWarning,0824.0,5.00,000.00,023.7,022.9,000.0,032.2,025.5,07.5,0000.0,0022.86,0005.04,0002.85
2024-03-12 00:22:00,SystemResetWarning,0824.0,4.99,000.00,023.7,022.9,000.0,032.2,025.5,07.5,0000.0,0023.61,0004.95,0002.82
2024-03-12 00:23:00,SystemResetWarning,0824.0,5.00,000.00,023.7,022.9,000.0,032.2,025.5,07.4,0000.0,0023.67,0004.86,0002.80
2024-03-12 00:24:00,SystemResetWarning,0823.9,5.01,000.00,023.7,022.9,000.0,032.2,025.5,07.5,0000.0,0024.60,0004.87,0002.78
2024-03-12 00:25:00,SystemResetWarning,0823.9,5.00,000.00,023.7,022.9,000.0,032.2,025.5,07.4,0000.0,0024.67,0004.91,0002.78
2024-03-12 00:26:00,SystemResetWarning,0824.0,5.01,000.00,023.7,022.9,000.0,032.2,025.5,07.2,0000.0,0025.17,0004.93,0002.78
2024-03-12 00:27:00,SystemResetWarning,0823.9,5.00,000.00,023.7,022.9,000.0,032.2,025.5,07.2,0000.0,0025.50,0004.93,0002.78
2024-03-12 00:28:00,SystemResetWarning,0824.0,4.99,000.00,023.7,022.9,000.0,032.2,025.5,07.1,0000.0,0025.09,0004.94,0002.75
2024-03-12 00:29:00,SystemResetWarning,0823.9,5.00,000.00,023.7,022.9,000.0,032.2,025.5,07.0,0000.0,0024.07,0004.89,0002.71
2024-03-12 00:30:00,SystemResetWarning,0824.0,4.99,000.00,023.7,022.9,000.0,032.2,025.5,07.0,0000.0,0023.54,0004.92,0002.66
2024-03-12 00:31:00,SystemResetWarning,0824.0,5.00,000.00,023.7,022.9,000.0,032.2,025.5,06.9,0000.0,0021.51,0004.96,0002.62
2024-03-12 00:32:00,SystemResetWarning,0823.9,5.00,000.00,023.7,022.9,000.0,032.2,025.5,07.0,0000.0,0020.90,0004.95,0002.58
2024-03-12 00:33:00,SystemResetWarning,0824.0,5.01,000.00,023.7,022.9,000.0,032.2,025.5,06.9,0000.0,0020.58,0004.97,0002.55
2024-03-12 00:34:00,SystemResetWarning,0823.9,5.01,000.00,023.7,022.9,000.0,032.2,025.5,07.0,0000.0,0020.81,0004.98,0002.53
2024-03-12 00:35:00,SystemResetWarning,0823.9,5.01,000.00,023.7,022.9,000.0,032.2,025.5,07.2,0000.0,0020.45,0005.01,0002.49
2024-03-12 00:36:00,SystemResetWarning,0824.0,4.99,000.00,023.7,023.0,000.0,032.2,025.5,07.2,0000.0,0021.10,0005.00,0002.44
2024-03-12 00:37:00,SystemResetWarning,0824.0,5.00,000.00,023.7,023.0,000.0,032.2,025.5,07.1,0000.0,0019.85,0004.91,0002.35
2024-03-12 00:38:00,SystemResetWarning,0824.0,5.00,000.00,023.7,023.0,000.0,032.2,025.5,07.1,0000.0,0019.15,0004.90,0002.32
2024-03-12 00:39:00,SystemResetWarning,0824.0,4.99,000.00,023.7,023.0,000.0,032.2,025.5,07.0,0000.0,0018.76,0004.89,0002.29
2024-03-12 00:40:00,SystemResetWarning,0824.0,5.00,000.00,023.7,023.0,000.0,032.2,025.5,07.0,0000.0,0019.57,0004.92,0002.29
2024-03-12 00:41:00,SystemResetWarning,0823.9,5.01,000.00,023.8,023.0,000.0,032.2,025.5,07.1,0000.0,0020.37,0004.96,0002.30
2024-03-12 00:42:00,SystemResetWarning,0824.0,5.01,000.00,023.8,023.0,000.0,032.2,025.5,07.0,0000.0,0021.01,0004.95,0002.30
2024-03-12 00:43:00,SystemResetWarning,0824.0,5.00,000.00,023.8,023.1,000.0,032.2,025.5,07.0,0000.0,0020.60,0004.92,0002.30
2024-03-12 00:44:00,SystemResetWarning,0824.0,4.99,000.00,023.8,023.1,000.0,032.2,025.5,06.9,0000.0,0018.88,0004.88,0002.28
2024-03-12 00:45:00,SystemResetWarning,0823.9,4.99,000.00,023.8,023.1,000.0,032.2,025.5,07.0,0000.0,0018.19,0004.82,0002.26
2024-03-12 00:46:00,SystemResetWarning,0824.0,5.02,000.00,023.8,023.1,000.0,032.2,025.6,07.0,0000.0,0018.31,0004.79,0002.24
2024-03-12 00:47:00,SystemResetWarning,0824.0,4.99,000.00,023.8,023.1,000.0,032.2,025.6,07.1,0000.0,0018.27,0004.75,0002.22
2024-03-12 00:48:00,SystemResetWarning,0823.9,4.99,000.00,023.8,023.1,000.0,032.2,025.6,07.0,0000.0,0018.40,0004.73,0002.23
2024-03-12 00:49:00,SystemResetWarning,0824.0,5.00,000.00,023.8,023.1,000.0,032.2,025.6,07.0,0000.0,0018.72,0004.72,0002.22
2024-03-12 00:50:00,SystemResetWarning,0824.0,5.00,000.00,023.8,023.1,000.0,032.3,025.6,07.0,0000.0,0019.19,0004.69,0002.22
2024-03-12 00:51:00,SystemResetWarning,0824.0,5.00,000.00,023.8,023.1,000.0,032.3,025.6,07.0,0000.0,0018.86,0004.65,0002.19
2024-03-12 00:52:00,SystemResetWarning,0823.9,5.01,000.00,023.8,023.1,000.0,032.3,025.6,07.1,0000.0,0018.03,0004.57,0002.18
2024-03-12 00:53:00,SystemResetWarning,0823.9,5.00,000.00,023.8,023.1,000.0,032.3,025.6,07.0,0000.0,0018.13,0004.49,0002.18
2024-03-12 00:54:00,SystemResetWarning,0824.0,5.00,000.00,023.8,023.1,000.0,032.3,025.6,07.0,0000.0,0017.99,0004.45,0002.17
2024-03-12 00:55:00,SystemResetWarning,0824.0,5.00,000.00,023.8,023.1,000.0,032.3,025.6,07.0,0000.0,0018.24,0004.40,0002.18
2024-03-12 00:56:00,SystemResetWarning,0824.0,4.98,000.00,023.8,023.1,000.0,032.3,025.6,07.1,0000.0,0018.55,0004.49,0002.18
2024-03-12 00:57:00,SystemResetWarning,0824.0,4.99,000.00,023.8,023.1,000.0,032.3,025.6,07.2,0000.0,0018.52,0004.48,0002.16
2024-03-12 00:58:00,SystemResetWarning,0824.0,5.00,000.00,023.9,023.1,000.0,032.3,025.6,07.5,0000.0,0017.65,0004.48,0002.18
2024-03-12 00:59:00,SystemResetWarning,0824.1,5.01,000.00,023.9,023.2,000.0,032.3,025.6,07.8,0000.0,0017.23,0004.51,0002.19
